1513555200.71,45890,6.69,72760.8,-15.25,-16.59,-16.55,0,*6F
1513555201.99,45891,6.69,72762.5,-15.27,-16.51,-16.51,0,*60
1513555203.25,45892,6.69,72762.3,-15.27,-16.45,-16.51,0,*66
1513555204.53,45893,6.69,72754.3,-15.27,-16.51,-16.51,0,*62
1513555205.81,45894,6.69,72754.0,-15.27,-16.51,-16.51,0,*65
1513555207.1,45895,6.69,72762.3,-15.27,-16.51,-16.51,0,*64
1513555208.38,45896,6.69,72764.0,-15.27,-16.51,-16.51,0,*67
1513555209.63,45897,6.69,72762.0,-15.27,-16.51,-16.45,0,*63
1513555210.89,45898,6.69,72760.8,-15.25,-16.31,-16.31,0,*6B
1513555212.17,45899,6.69,72766.5,-15.27,-16.31,-16.31,0,*68
1513555213.45,45900,6.69,72764.0,-15.27,-16.31,-16.31,0,*69
1513555214.73,45901,6.69,72762.5,-15.27,-16.31,-16.51,0,*6E
1513555216.01,45902,6.69,72766.3,-15.27,-16.31,-16.51,0,*6D
1513555217.27,45903,6.69,72768.5,-15.27,-16.23,-16.59,0,*67
1513555218.55,45904,6.69,72768.0,-15.27,-16.31,-16.65,0,*6C
1513555219.81,45905,6.69,72766.3,-15.27,-16.45,-16.65,0,*6E
1513555221.06,45906,6.69,72758.3,-15.27,-16.37,-16.59,0,*67
1513555222.32,45907,6.69,72764.8,-15.27,-16.31,-16.59,0,*60
1513555223.58,45908,6.69,72768.8,-15.27,-16.37,-16.51,0,*61
1513555224.83,45909,6.69,72766.3,-15.27,-16.37,-16.51,0,*60
1513555226.08,45910,6.69,72762.0,-15.27,-16.31,-16.45,0,*6B
1513555227.34,45911,6.69,72762.5,-15.27,-16.23,-16.45,0,*69
1513555228.59,45912,6.69,72764.0,-15.27,-16.31,-16.45,0,*69
1513555229.82,45913,6.69,72764.8,-15.27,-16.37,-16.45,0,*6E
1513555231.07,45914,6.69,72758.5,-15.27,-16.31,-16.45,0,*6F
1513555232.35,45915,6.69,72764.8,-15.27,-16.23,-16.51,0,*68
1513555233.59,45916,6.69,72766.8,-15.27,-16.45,-16.59,0,*63
1513555234.86,45917,6.69,72762.3,-15.27,-16.45,-17.07,0,*68
1513555236.13,45918,6.69,72764.8,-15.27,-16.75,-17.41,0,*66
1513555237.41,45919,6.69,72766.0,-15.27,-17.03,-17.79,0,*6C
1513555238.7,45920,6.69,72766.5,-15.27,-17.21,-17.97,0,*66
1513555239.94,45921,6.69,72764.8,-15.27,-17.35,-18.25,0,*64
1513555241.17,45922,6.69,72766.5,-15.27,-17.49,-18.41,0,*6E
1513555242.46,45923,6.69,72770.0,-15.27,-17.63,-18.31,0,*60
1513555243.71,45924,6.69,72764.3,-15.27,-17.79,-18.41,0,*6B
1513555244.95,45925,6.69,72764.0,-15.29,-17.79,-17.83,0,*65
1513555246.19,45926,6.69,72762.3,-15.29,-17.41,-17.49,0,*6B
1513555247.46,45927,6.69,72758.5,-15.29,-17.25,-17.21,0,*66
1513555248.73,45928,6.69,72758.8,-15.29,-17.03,-17.03,0,*6D
1513555249.94,45929,6.69,72756.5,-15.29,-16.79,-16.89,0,*63
1513555251.16,45930,6.69,72758.8,-15.29,-16.59,-16.79,0,*66
1513555252.41,45931,6.69,72758.0,-15.29,-16.51,-16.75,0,*63
1513555253.65,45932,6.69,72758.8,-15.29,-16.51,-16.75,0,*60
1513555254.89,45933,6.69,72770.3,-15.29,-16.51,-16.89,0,*62
1513555256.16,45934,6.69,72766.8,-15.29,-16.51,-17.03,0,*66
1513555257.46,45935,6.69,72766.5,-15.31,-16.69,-17.07,0,*61
1513555258.73,45936,6.69,72762.5,-15.31,-16.79,-17.07,0,*63
1513555259.95,45937,6.69,72762.3,-15.29,-16.75,-16.89,0,*60
1513555261.17,45938,6.69,72764.8,-15.29,-16.59,-16.75,0,*62
1513555262.39,45939,6.69,72764.8,-15.29,-16.59,-16.59,0,*6D
1513555263.65,45940,6.69,72768.5,-15.29,-16.51,-16.51,0,*63
1513555264.89,45941,6.69,72766.5,-15.29,-16.31,-16.45,0,*61
1513555266.12,45942,6.69,72768.3,-15.29,-16.45,-16.51,0,*64
1513555267.33,45943,6.69,72770.8,-15.29,-16.37,-16.45,0,*65
1513555268.58,45944,6.69,72768.0,-15.31,-16.41,-16.41,0,*6E
1513555269.85,45945,6.69,72768.0,-15.29,-16.23,-16.23,0,*66
1513555271.08,45946,6.69,72768.5,-15.29,-16.23,-16.37,0,*60
1513555272.34,45947,6.69,72774.8,-15.29,-16.23,-16.51,0,*61
1513555273.58,45948,6.69,72774.8,-15.29,-16.31,-16.45,0,*68
1513555274.84,45949,6.69,72778.8,-15.27,-16.31,-16.59,0,*6A
1513555276.1,45950,6.69,72782.8,-15.27,-16.37,-16.65,0,*6B
1513555277.37,45951,6.69,72776.0,-15.31,-16.41,-16.69,0,*60
1513555278.61,45952,6.69,72776.8,-15.27,-16.45,-16.75,0,*6D
1513555279.86,45953,6.69,72776.8,-15.31,-16.55,-16.79,0,*66
1513555281.1,45954,6.69,72778.5,-15.29,-16.55,-16.69,0,*69
1513555282.37,45955,6.69,72768.8,-15.29,-16.51,-16.65,0,*60
1513555283.63,45956,6.69,72764.0,-15.29,-16.51,-16.65,0,*63
1513555284.87,45957,6.69,72758.8,-15.27,-16.45,-16.59,0,*66
1513555286.11,45958,6.69,72760.3,-15.27,-16.45,-16.59,0,*69
1513555287.36,45959,6.69,72764.3,-15.27,-16.45,-16.59,0,*68
1513555288.62,45960,6.69,72778.3,-15.27,-16.37,-16.65,0,*68
1513555289.86,45961,6.69,72770.0,-15.27,-16.45,-16.59,0,*63
1513555291.1,45962,6.69,72766.8,-15.27,-16.59,-16.79,0,*6F
1513555292.36,45963,6.69,72772.5,-15.27,-16.65,-16.79,0,*61
1513555293.63,45964,6.69,72774.8,-15.27,-16.65,-16.75,0,*6A
1513555294.91,45965,6.69,72772.8,-15.27,-16.51,-16.51,0,*6A
1513555296.15,45966,6.69,72770.5,-15.29,-16.51,-16.37,0,*67
1513555297.41,45967,6.69,72768.0,-15.29,-16.31,-16.31,0,*66
1513555298.68,45968,6.69,72774.0,-15.29,-16.23,-16.23,0,*69
1513555299.94,45969,6.69,72770.0,-15.29,-16.23,-16.23,0,*68
1513555301.21,45970,6.69,72770.3,-15.29,-16.17,-16.13,0,*64
1513555302.47,45971,6.69,72770.3,-15.27,-16.13,-16.03,0,*6E
1513555303.73,45972,6.69,72768.0,-15.27,-16.17,-16.03,0,*69
1513555305.0,45973,6.69,72762.3,-15.27,-16.13,-16.03,0,*6C
1513555306.21,45974,6.69,72766.5,-15.29,-16.03,-16.03,0,*64
1513555307.43,45975,6.69,72766.8,-15.29,-16.03,-16.03,0,*65
1513555308.66,45976,6.69,72768.8,-15.27,-16.03,-16.03,0,*68
1513555309.89,45977,6.69,72762.3,-15.27,-15.99,-16.03,0,*69
1513555311.13,45978,6.69,72766.5,-15.27,-16.03,-16.03,0,*66
1513555312.36,45979,6.69,72764.3,-15.27,-16.03,-16.03,0,*67
1513555313.62,45980,6.69,72768.5,-15.27,-16.03,-16.13,0,*60
1513555314.89,45981,6.69,72782.0,-15.25,-16.09,-16.13,0,*69
1513555316.16,45982,6.69,72776.3,-15.25,-16.17,-16.17,0,*61
1513555317.45,45983,6.69,72778.3,-15.27,-16.17,-16.31,0,*66
1513555318.73,45984,6.69,72766.8,-15.27,-16.23,-16.23,0,*65
1513555320.01,45985,6.69,72772.3,-15.25,-16.17,-16.17,0,*66
1513555321.29,45986,6.69,72774.0,-15.27,-16.23,-16.31,0,*64
1513555322.57,45987,6.69,72774.5,-15.27,-16.23,-16.23,0,*66
1513555323.84,45988,6.69,72774.0,-15.25,-16.17,-16.17,0,*6B
1513555325.13,45989,6.69,72772.8,-15.27,-16.23,-16.31,0,*6B
1513555326.42,45990,6.69,72776.0,-15.27,-16.23,-16.17,0,*67
1513555327.67,45991,6.69,72772.8,-15.27,-16.31,-16.37,0,*67
1513555328.91,45992,6.69,72774.8,-15.27,-16.45,-16.59,0,*6F
1513555330.19,45993,6.69,72776.3,-15.27,-16.51,-16.51,0,*63
1513555331.43,45994,6.69,72772.0,-15.25,-16.51,-16.45,0,*63
1513555332.69,45995,6.69,72770.0,-15.27,-16.51,-16.37,0,*65
1513555333.93,45996,6.69,72774.3,-15.25,-16.41,-16.27,0,*64
1513555335.19,45997,6.69,72774.5,-15.27,-16.37,-16.23,0,*62
1513555336.47,45998,6.69,72780.3,-15.27,-16.31,-16.31,0,*68
1513555337.74,45999,6.69,72776.8,-15.25,-16.31,-16.17,0,*6F
1513555339.02,46000,6.69,72778.0,-15.27,-16.23,-16.23,0,*63
1513555340.28,46001,6.69,72772.8,-15.25,-16.27,-16.27,0,*60
1513555341.57,46002,6.69,72774.8,-15.27,-16.23,-16.17,0,*66
1513555342.86,46003,6.69,72774.5,-15.27,-16.23,-16.17,0,*67
1513555344.15,46004,6.69,72770.5,-15.27,-16.17,-16.17,0,*67
1513555345.45,46005,6.69,72770.0,-15.27,-16.13,-16.17,0,*62
1513555346.72,46006,6.69,72774.0,-15.25,-16.09,-16.09,0,*67
1513555347.99,46007,6.69,72778.0,-15.27,-16.13,-16.03,0,*65
1513555349.28,46008,6.69,72782.8,-15.27,-16.13,-16.17,0,*6F
1513555350.57,46009,6.69,72786.0,-15.27,-16.17,-16.17,0,*6A
1513555351.84,46010,6.69,72784.8,-15.25,-16.17,-16.13,0,*64
1513555353.13,46011,6.69,72784.3,-15.27,-16.23,-16.17,0,*64
1513555354.42,46012,6.69,72782.3,-15.27,-16.23,-16.17,0,*67
1513555355.69,46013,6.69,72786.3,-15.27,-16.37,-16.17,0,*63
1513555356.97,46014,6.69,72784.0,-15.27,-16.31,-16.23,0,*65
1513555358.23,46015,6.69,72786.5,-15.25,-16.23,-16.13,0,*66
1513555359.5,46016,6.69,72784.8,-15.25,-16.13,-16.13,0,*66
1513555360.79,46017,6.69,72784.5,-15.27,-16.23,-16.23,0,*65
1513555362.07,46018,6.69,72782.8,-15.27,-16.31,-16.23,0,*69
1513555363.35,46019,6.69,72786.5,-15.27,-16.31,-16.17,0,*6F
1513555364.64,46020,6.69,72780.8,-15.27,-16.31,-16.17,0,*65
1513555365.92,46021,6.69,72780.5,-15.27,-16.31,-16.23,0,*63
1513555367.2,46022,6.69,72776.3,-15.27,-16.31,-16.23,0,*60
1513555368.49,46023,6.69,72778.3,-15.27,-16.23,-16.17,0,*65
1513555369.76,46024,6.69,72778.8,-15.29,-16.23,-16.17,0,*6C
1513555371.05,46025,6.69,72774.8,-15.27,-16.23,-16.17,0,*63
1513555372.33,46026,6.69,72768.3,-15.27,-16.23,-16.13,0,*64
1513555373.62,46027,6.69,72768.8,-15.27,-16.17,-16.17,0,*66
1513555374.92,46028,6.69,72760.5,-15.27,-16.17,-16.17,0,*69
1513555376.21,46029,6.69,72766.0,-15.27,-16.13,-16.17,0,*6C
1513555377.5,46030,6.69,72764.5,-15.27,-16.13,-16.13,0,*60
1513555378.77,46031,6.69,72760.0,-15.29,-16.17,-16.13,0,*6B
1513555380.04,46032,6.69,72764.3,-15.29,-16.13,-16.13,0,*6C
1513555381.3,46033,6.69,72764.0,-15.27,-15.99,-16.13,0,*62
1513555382.53,46034,6.69,72760.3,-15.27,-16.03,-15.99,0,*64
1513555383.78,46035,6.69,72760.3,-15.25,-16.09,-15.99,0,*6D
1513555385.01,46036,6.69,72766.3,-15.27,-16.03,-15.99,0,*66
1513555386.24,46037,6.69,72764.8,-15.27,-16.03,-16.03,0,*67
1513555387.51,46038,6.69,72762.0,-15.27,-16.13,-16.03,0,*69
1513555388.78,46039,6.69,72756.5,-15.25,-16.13,-16.09,0,*60
1513555390.03,46040,6.69,72756.8,-15.25,-16.03,-16.17,0,*60
1513555391.29,46041,6.69,72768.3,-15.27,-16.13,-16.03,0,*67
1513555392.56,46042,6.69,72766.3,-15.25,-16.13,-16.09,0,*6C
1513555393.85,46043,6.69,72762.3,-15.27,-16.17,-16.13,0,*60
1513555395.15,46044,6.69,72762.8,-15.27,-16.17,-16.17,0,*63
1513555396.42,46045,6.69,72746.5,-15.25,-16.13,-16.09,0,*6B
1513555397.71,46046,6.69,72754.3,-15.27,-16.17,-16.17,0,*61
1513555399.0,46047,6.69,72744.5,-15.27,-16.17,-16.17,0,*60
1513555400.27,46048,6.69,72734.0,-15.25,-16.13,-16.13,0,*6D
1513555401.57,46049,6.69,72756.3,-15.27,-16.13,-16.13,0,*6E
1513555402.86,46050,6.69,72750.0,-15.27,-16.13,-16.17,0,*62
1513555404.15,46051,6.69,72746.5,-15.27,-16.17,-16.17,0,*67
1513555405.43,46052,6.69,72762.5,-15.25,-16.13,-16.17,0,*62
1513555406.68,46053,6.69,72770.5,-15.27,-16.31,-16.37,0,*63
1513555407.92,46054,6.69,72768.0,-15.25,-16.31,-16.79,0,*6C
1513555409.15,46055,6.69,72762.0,-15.27,-16.89,-17.49,0,*6E
1513555410.4,46056,6.69,72770.0,-15.25,-17.17,-18.11,0,*6B
1513555411.68,46057,6.69,72772.8,-15.27,-17.93,-18.55,0,*64
1513555412.91,46058,6.69,72746.8,-15.25,-17.79,-18.25,0,*6A
1513555414.14,46059,6.69,72742.8,-15.27,-17.83,-18.17,0,*6D
1513555415.38,46060,6.69,72744.5,-15.25,-17.93,-18.21,0,*61
1513555416.67,46061,6.69,72774.5,-15.27,-17.97,-17.93,0,*60
1513555417.91,46062,6.69,72778.5,-15.27,-18.07,-17.69,0,*60
1513555419.15,46063,6.69,72782.5,-15.27,-17.83,-17.35,0,*6B
1513555420.41,46064,6.69,72782.8,-15.27,-17.49,-17.17,0,*6A
1513555421.67,46065,6.69,72770.0,-15.27,-17.35,-17.17,0,*60
1513555422.91,46066,6.69,72764.8,-15.29,-17.07,-16.93,0,*61
1513555424.18,46067,6.69,72760.0,-15.29,-17.07,-17.03,0,*68
1513555425.42,46068,6.69,72752.3,-15.29,-17.03,-16.93,0,*6B
1513555426.69,46069,6.69,72744.8,-15.29,-17.07,-17.03,0,*66
1513555427.9,46070,6.69,72758.3,-15.29,-16.89,-16.79,0,*65
1513555429.12,46071,6.69,72752.8,-15.29,-16.89,-16.79,0,*64
1513555430.33,46072,6.69,72752.0,-15.29,-16.79,-16.89,0,*67
1513555431.55,46073,6.69,72752.5,-15.29,-16.79,-16.93,0,*6D
1513555432.79,46074,6.69,72756.5,-15.29,-16.89,-17.17,0,*68
1513555434.08,46075,6.69,72756.8,-15.27,-17.17,-17.55,0,*67
1513555435.36,46076,6.69,72752.8,-15.27,-17.41,-17.93,0,*6D
1513555436.57,46077,6.69,72768.5,-15.29,-17.69,-18.17,0,*6B
1513555437.83,46078,6.69,72780.5,-15.29,-17.97,-18.59,0,*6F
1513555439.07,46079,6.69,72788.0,-15.29,-18.41,-19.23,0,*66
1513555440.31,46080,6.69,72780.0,-15.29,-18.59,-19.47,0,*6B
1513555441.53,46081,6.69,72768.8,-15.29,-18.73,-19.37,0,*65
1513555442.79,46082,6.69,72766.5,-15.31,-18.45,-18.93,0,*65
1513555444.04,46083,6.69,72766.8,-15.29,-18.31,-18.45,0,*65
1513555445.28,46084,6.69,72768.3,-15.31,-18.11,-17.87,0,*68
1513555446.52,46085,6.69,72760.5,-15.29,-17.63,-17.49,0,*68
1513555447.76,46086,6.69,72764.5,-15.29,-17.35,-17.41,0,*60
1513555449.03,46087,6.69,72768.5,-15.31,-17.59,-17.69,0,*68
1513555450.27,46088,6.69,72764.8,-15.31,-17.73,-17.83,0,*6B
1513555451.5,46089,6.69,72764.5,-15.29,-17.83,-17.83,0,*6C
1513555452.76,46090,6.69,72756.5,-15.31,-18.11,-17.79,0,*6C
1513555454.03,46091,6.69,72750.0,-15.31,-18.01,-17.83,0,*69
1513555455.3,46092,6.69,72754.5,-15.29,-17.97,-17.55,0,*68
1513555456.56,46093,6.69,72748.5,-15.31,-17.69,-17.25,0,*66
1513555457.86,46094,6.69,72748.3,-15.31,-17.45,-17.11,0,*68
1513555459.16,46095,6.69,72752.0,-15.31,-17.41,-17.11,0,*6D
1513555460.4,46096,6.69,72750.8,-15.29,-17.25,-16.89,0,*65
1513555461.66,46097,6.69,72752.0,-15.31,-17.11,-16.79,0,*65
1513555462.93,46098,6.69,72754.5,-15.31,-17.07,-16.55,0,*63
1513555464.2,46099,6.69,72756.3,-15.31,-16.79,-16.51,0,*6E
1513555465.44,46100,6.69,72756.0,-15.29,-16.69,-16.41,0,*66
1513555466.66,46101,6.69,72762.5,-15.29,-16.55,-16.37,0,*69
1513555467.92,46102,6.69,72756.5,-15.31,-16.51,-16.37,0,*67
1513555469.19,46103,6.69,72758.0,-15.31,-16.37,-16.27,0,*67
1513555470.45,46104,6.69,72766.3,-15.31,-16.27,-16.37,0,*60
1513555471.74,46105,6.69,72760.5,-15.31,-16.27,-16.23,0,*64
1513555473.01,46106,6.69,72760.5,-15.29,-16.31,-16.23,0,*69
1513555474.27,46107,6.69,72762.5,-15.29,-16.23,-16.23,0,*6B
1513555475.53,46108,6.69,72760.0,-15.29,-16.23,-16.31,0,*67
1513555476.8,46109,6.69,72764.0,-15.29,-16.27,-16.31,0,*62
1513555478.06,46110,6.69,72764.3,-15.29,-16.23,-16.31,0,*6E
1513555479.32,46111,6.69,72764.3,-15.31,-16.27,-16.37,0,*64
1513555480.55,46112,6.69,72770.0,-15.29,-16.31,-16.45,0,*6C
1513555481.79,46113,6.69,72772.0,-15.29,-16.37,-16.65,0,*69
1513555483.04,46114,6.69,72770.0,-15.29,-16.65,-16.75,0,*68
1513555484.29,46115,6.69,72774.8,-15.29,-16.65,-16.75,0,*69
1513555485.53,46116,6.69,72772.5,-15.31,-16.93,-16.93,0,*62
1513555486.74,46117,6.69,72776.5,-15.29,-16.93,-16.89,0,*61
1513555487.97,46118,6.69,72776.0,-15.29,-16.93,-17.03,0,*6D
1513555489.24,46119,6.69,72776.3,-15.29,-17.07,-17.03,0,*60
1513555490.51,46120,6.69,72774.0,-15.31,-17.21,-16.97,0,*6B
1513555491.77,46121,6.69,72772.3,-15.31,-17.11,-16.97,0,*69
1513555493.01,46122,6.69,72774.8,-15.29,-17.07,-16.89,0,*6B
1513555494.26,46123,6.69,72774.0,-15.29,-17.03,-16.79,0,*61
1513555495.49,46124,6.69,72778.3,-15.31,-16.97,-16.93,0,*67
1513555496.71,46125,6.69,72782.8,-15.29,-16.89,-16.89,0,*6B
1513555497.97,46126,6.69,72778.5,-15.31,-16.93,-17.11,0,*6A
1513555499.24,46127,6.69,72776.8,-15.29,-17.03,-17.21,0,*69
1513555500.52,46128,6.69,72776.0,-15.27,-17.03,-17.21,0,*68
1513555501.8,46129,6.69,72770.3,-15.29,-17.03,-17.07,0,*63
1513555503.06,46130,6.69,72764.5,-15.31,-17.07,-16.93,0,*6A
1513555504.28,46131,6.69,72752.8,-15.29,-16.93,-16.79,0,*6A
1513555505.52,46132,6.69,72790.3,-15.27,-16.79,-16.79,0,*63
1513555506.78,46133,6.69,72790.0,-15.27,-16.75,-17.03,0,*62
1513555508.02,46134,6.69,72774.5,-15.29,-17.03,-17.49,0,*65
1513555509.29,46135,6.69,72768.3,-15.29,-17.25,-17.41,0,*68
1513555510.56,46136,6.69,72772.8,-15.29,-17.07,-17.41,0,*6B
1513555511.82,46137,6.69,72772.8,-15.29,-17.11,-17.11,0,*68
1513555513.06,46138,6.69,72774.5,-15.29,-16.89,-17.03,0,*64
1513555514.36,46139,6.69,72774.3,-15.31,-16.69,-17.07,0,*66
1513555515.64,46140,6.69,72768.5,-15.29,-16.65,-17.07,0,*6D
1513555516.93,46141,6.69,72774.3,-15.31,-16.69,-17.21,0,*6D
1513555518.17,46142,6.69,72774.8,-15.29,-16.59,-17.17,0,*61
1513555519.47,46143,6.69,72778.8,-15.31,-16.69,-17.41,0,*69
1513555520.74,46144,6.69,72780.0,-15.31,-16.79,-17.45,0,*6B
1513555522.0,46145,6.69,72780.5,-15.31,-16.93,-17.45,0,*6E
1513555523.24,46146,6.69,72784.0,-15.31,-16.93,-17.31,0,*6E
1513555524.48,46147,6.69,72778.5,-15.29,-16.79,-17.07,0,*67
1513555525.75,46148,6.69,72782.5,-15.31,-16.69,-16.93,0,*6C
1513555527.01,46149,6.69,72778.8,-15.29,-16.51,-16.65,0,*66
1513555528.27,46150,6.69,72784.3,-15.29,-16.51,-16.51,0,*69
1513555529.49,46151,6.69,72780.5,-15.29,-16.37,-16.45,0,*6D
1513555530.72,46152,6.69,72780.5,-15.29,-16.31,-16.37,0,*6D
1513555531.95,46153,6.69,72786.3,-15.29,-16.23,-16.45,0,*6A
1513555533.16,46154,6.69,72780.5,-15.29,-16.45,-16.45,0,*6D
1513555534.38,46155,6.69,72784.3,-15.29,-16.37,-16.45,0,*69
1513555535.65,46156,6.69,72786.0,-15.31,-16.41,-16.65,0,*60
1513555536.89,46157,6.69,72786.3,-15.31,-16.41,-16.79,0,*6C
1513555538.16,46158,6.69,72784.0,-15.31,-16.51,-16.83,0,*67
1513555539.43,46159,6.69,72788.5,-15.29,-16.51,-17.03,0,*66
1513555540.67,46160,6.69,72788.3,-15.29,-16.59,-17.03,0,*64
1513555541.94,46161,6.69,72786.5,-15.29,-16.65,-17.17,0,*6F
1513555543.18,46162,6.69,72784.0,-15.29,-16.75,-17.17,0,*6D
1513555544.45,46163,6.69,72786.8,-15.31,-16.83,-17.41,0,*6F
1513555545.69,46164,6.69,72786.3,-15.29,-16.93,-17.63,0,*60
1513555546.96,46165,6.69,72788.0,-15.31,-17.21,-18.11,0,*6A
1513555548.21,46166,6.69,72788.0,-15.29,-17.45,-18.11,0,*62
1513555549.45,46167,6.69,72782.3,-15.29,-17.35,-17.93,0,*61
1513555550.73,46168,6.69,72778.8,-15.31,-17.41,-17.83,0,*65
1513555552.02,46169,6.69,72782.3,-15.31,-17.45,-18.01,0,*65
1513555553.26,46170,6.69,72784.3,-15.29,-17.63,-18.11,0,*61
1513555554.5,46171,6.69,72776.8,-15.31,-17.87,-18.21,0,*60
1513555555.75,46172,6.69,72784.0,-15.29,-17.97,-18.07,0,*6F
1513555557.05,46173,6.69,72782.5,-15.31,-17.97,-18.01,0,*61
1513555558.31,46174,6.69,72780.5,-15.29,-17.63,-17.79,0,*64
1513555559.55,46175,6.69,72774.5,-15.29,-17.55,-17.49,0,*63
1513555560.81,46176,6.69,72772.8,-15.31,-17.55,-17.69,0,*6B
1513555562.06,46177,6.69,72774.0,-15.29,-17.97,-17.83,0,*69
1513555563.34,46178,6.69,72772.5,-15.31,-18.31,-17.83,0,*6C
1513555564.58,46179,6.69,72774.3,-15.31,-18.11,-17.83,0,*6F
1513555565.86,46180,6.69,72772.3,-15.31,-18.31,-17.87,0,*6F
1513555567.13,46181,6.69,72776.8,-15.31,-18.59,-17.83,0,*64
1513555568.37,46182,6.69,72786.5,-15.31,-18.73,-17.87,0,*6B
1513555569.62,46183,6.69,72788.3,-15.29,-19.23,-18.11,0,*67
1513555570.89,46184,6.69,72786.0,-15.31,-20.29,-18.31,0,*6B
1513555572.12,46185,6.69,72786.3,-15.31,-20.09,-18.17,0,*6C
1513555573.39,46186,6.69,72780.8,-15.35,-19.51,-17.97,0,*6B
1513555574.68,46187,6.69,72784.5,-15.31,-18.89,-17.59,0,*68
1513555575.94,46188,6.69,72772.8,-15.35,-18.21,-17.21,0,*6E
1513555577.18,46189,6.69,72768.3,-15.35,-17.87,-16.97,0,*60
1513555578.45,46190,6.69,72770.3,-15.35,-17.59,-16.83,0,*6E
1513555579.68,46191,6.69,72766.8,-15.37,-17.31,-16.69,0,*67
1513555580.97,46192,6.69,72768.0,-15.35,-17.07,-16.51,0,*68
1513555582.24,46193,6.69,72770.3,-15.35,-16.69,-16.41,0,*61
1513555583.48,46194,6.69,72768.0,-15.37,-16.59,-16.31,0,*60
1513555584.74,46195,6.69,72762.0,-15.35,-16.37,-16.27,0,*6C
1513555586.01,46196,6.69,72760.3,-15.35,-16.37,-16.27,0,*6F
1513555587.3,46197,6.69,72766.8,-15.35,-16.27,-16.23,0,*6B
1513555588.58,46198,6.69,72762.3,-15.35,-16.27,-16.23,0,*64
1513555589.87,46199,6.69,72792.0,-15.35,-16.27,-16.23,0,*65
1513555591.16,46200,6.69,72790.5,-15.35,-16.27,-16.27,0,*62
1513555592.4,46201,6.69,72776.8,-15.35,-16.37,-16.37,0,*63
1513555593.64,46202,6.69,72768.5,-15.37,-16.45,-16.31,0,*61
1513555594.9,46203,6.69,72764.5,-15.35,-16.37,-16.27,0,*60
1513555596.17,46204,6.69,72770.0,-15.35,-16.37,-16.27,0,*67
1513555597.46,46205,6.69,72766.0,-15.31,-16.27,-16.27,0,*63
1513555598.75,46206,6.69,72766.5,-15.31,-16.27,-16.23,0,*64
1513555600.03,46207,6.69,72744.8,-15.35,-16.27,-16.27,0,*65
1513555601.32,46208,6.69,72744.8,-15.35,-16.27,-16.27,0,*6A
1513555602.61,46209,6.69,72750.3,-15.35,-16.27,-16.27,0,*6B
1513555603.85,46210,6.69,72750.0,-15.35,-16.37,-16.37,0,*63
1513555605.09,46211,6.69,72744.0,-15.35,-16.37,-16.41,0,*63
1513555606.33,46212,6.69,72766.8,-15.35,-16.41,-16.55,0,*64
1513555607.62,46213,6.69,72766.5,-15.35,-16.51,-16.65,0,*67
1513555608.89,46214,6.69,72778.5,-15.35,-16.55,-16.69,0,*68
1513555610.19,46215,6.69,72766.8,-15.31,-16.65,-17.11,0,*60
1513555611.45,46216,6.69,72768.3,-15.31,-16.83,-17.55,0,*6B
1513555612.72,46217,6.69,72776.8,-15.35,-17.07,-17.73,0,*67
1513555613.99,46218,6.69,72778.5,-15.35,-17.41,-18.21,0,*62
1513555615.26,46219,6.69,72776.3,-15.31,-17.87,-18.35,0,*68
1513555616.53,46220,6.69,72774.5,-15.35,-17.97,-18.11,0,*61
1513555617.8,46221,6.69,72770.3,-15.35,-17.97,-17.83,0,*64
1513555619.06,46222,6.69,72762.0,-15.35,-17.31,-17.41,0,*65
1513555620.35,46223,6.69,72758.5,-15.35,-17.25,-17.45,0,*65
1513555621.61,46224,6.69,72762.0,-15.35,-17.31,-17.55,0,*66
1513555622.87,46225,6.69,72764.5,-15.35,-17.59,-17.73,0,*6D
1513555624.12,46226,6.69,72764.5,-15.31,-17.83,-17.87,0,*66
1513555625.39,46227,6.69,72762.3,-15.35,-18.21,-18.31,0,*66
1513555626.64,46228,6.69,72768.3,-15.37,-19.13,-18.55,0,*69
1513555627.86,46229,6.69,72764.5,-15.37,-18.99,-17.87,0,*6B
1513555629.12,46230,6.69,72768.3,-15.35,-18.17,-17.21,0,*6B
1513555630.37,46231,6.69,72772.5,-15.37,-17.55,-16.75,0,*61
1513555631.62,46232,6.69,72776.3,-15.35,-16.93,-16.51,0,*6D
1513555632.89,46233,6.69,72776.3,-15.35,-16.69,-16.41,0,*68
1513555634.13,46234,6.69,72772.8,-15.35,-16.55,-16.37,0,*61
1513555635.4,46235,6.69,72766.8,-15.35,-16.41,-16.27,0,*64
1513555636.67,46236,6.69,72750.0,-15.35,-16.41,-16.27,0,*67
1513555637.96,46237,6.69,72742.0,-15.35,-16.27,-16.27,0,*66
1513555639.25,46238,6.69,72738.8,-15.35,-16.23,-16.17,0,*6E
1513555640.54,46239,6.69,72762.5,-15.35,-16.17,-16.17,0,*68
1513555641.81,46240,6.69,72758.8,-15.37,-16.27,-16.27,0,*64
1513555643.09,46241,6.69,72758.8,-15.35,-16.23,-16.23,0,*67
1513555644.36,46242,6.69,72764.0,-15.35,-16.27,-16.37,0,*65
1513555645.62,46243,6.69,72752.3,-15.35,-16.27,-16.37,0,*64
1513555646.84,46244,6.69,72760.5,-15.37,-16.55,-16.41,0,*65
1513555648.08,46245,6.69,72770.0,-15.35,-16.41,-16.41,0,*63
1513555649.33,46246,6.69,72776.3,-15.35,-16.41,-16.41,0,*60
1513555650.57,46247,6.69,72774.5,-15.35,-16.55,-16.41,0,*64
1513555651.84,46248,6.69,72776.8,-15.35,-16.65,-16.41,0,*68
1513555653.1,46249,6.69,72774.8,-15.35,-16.51,-16.55,0,*6B
1513555654.39,46250,6.69,72768.8,-15.35,-16.69,-16.65,0,*6B
1513555655.66,46251,6.69,72768.8,-15.31,-16.83,-16.69,0,*66
1513555656.91,46252,6.69,72766.8,-15.31,-16.83,-16.79,0,*64
1513555658.15,46253,6.69,72774.8,-15.31,-16.79,-16.79,0,*60
1513555659.37,46254,6.69,72778.0,-15.29,-16.75,-16.75,0,*6E
1513555660.62,46255,6.69,72778.3,-15.31,-16.83,-16.79,0,*63
1513555661.91,46256,6.69,72778.0,-15.31,-16.69,-16.65,0,*69
1513555663.18,46257,6.69,72770.5,-15.31,-16.69,-16.41,0,*6E
1513555664.45,46258,6.69,72768.0,-15.35,-16.55,-16.51,0,*6B
1513555665.69,46259,6.69,72764.3,-15.35,-16.41,-16.41,0,*6E
1513555666.93,46260,6.69,72770.8,-15.35,-16.41,-16.37,0,*65
1513555668.17,46261,6.69,72768.3,-15.35,-16.37,-16.41,0,*64
1513555669.41,46262,6.69,72762.8,-15.35,-16.37,-16.37,0,*66
1513555670.67,46263,6.69,72762.0,-15.31,-16.27,-16.37,0,*62
1513555671.94,46264,6.69,72760.5,-15.31,-16.37,-16.51,0,*64
1513555673.18,46265,6.69,72764.3,-15.31,-16.41,-16.37,0,*64
1513555674.42,46266,6.69,72760.5,-15.35,-16.41,-16.37,0,*63
1513555675.69,46267,6.69,72766.5,-15.35,-16.41,-16.27,0,*63
1513555676.96,46268,6.69,72756.3,-15.35,-16.37,-16.27,0,*6D
1513555678.2,46269,6.69,72756.5,-15.31,-16.37,-16.37,0,*69
1513555679.49,46270,6.69,72768.5,-15.31,-16.27,-16.27,0,*61
1513555680.78,46271,6.69,72782.0,-15.31,-16.27,-16.27,0,*60
1513555682.05,46272,6.69,72788.3,-15.31,-16.37,-16.27,0,*62
1513555683.31,46273,6.69,72790.0,-15.31,-16.37,-16.27,0,*63
1513555684.6,46274,6.69,72790.3,-15.31,-16.27,-16.23,0,*61
1513555685.87,46275,6.69,72782.8,-15.31,-16.37,-16.23,0,*61
1513555687.14,46276,6.69,72782.3,-15.31,-16.37,-16.27,0,*66
1513555688.38,46277,6.69,72784.3,-15.31,-16.37,-16.37,0,*66
1513555689.64,46278,6.69,72782.3,-15.31,-16.27,-16.37,0,*68
1513555690.88,46279,6.69,72784.3,-15.31,-16.37,-16.37,0,*68
1513555692.17,46280,6.69,72782.5,-15.31,-16.51,-16.51,0,*6E
1513555693.42,46281,6.69,72778.3,-15.31,-16.55,-16.41,0,*6A
1513555694.66,46282,6.69,72776.5,-15.31,-16.41,-16.37,0,*6D
1513555695.93,46283,6.69,72776.3,-15.31,-16.41,-16.27,0,*6D
1513555697.2,46284,6.69,72778.8,-15.31,-16.37,-16.23,0,*6F
1513555698.47,46285,6.69,72778.3,-15.31,-16.37,-16.23,0,*6E
1513555699.73,46286,6.69,72776.8,-15.29,-16.31,-16.17,0,*65
1513555701.03,46287,6.69,72772.8,-15.31,-16.27,-16.17,0,*6A
1513555702.32,46288,6.69,72778.0,-15.31,-16.27,-16.17,0,*65
1513555703.62,46289,6.69,72778.3,-15.31,-16.23,-16.17,0,*60